• In Deutschland
  • Länderverzeichnis
  • Für 7 Tage
  • Wassertemperatur
  • Satellitenkarten
  • Wetterkarte
  • Widgets
  • user-avatar
    Anmelden

    Stündliche Wetter Armsheim

    Heute, 19 Juli, Donnerstag

    Zeit Temperatur Niederschläge Wind Luftdruck Luftfeuchtigkeit
    00:00 +19°C° 0 mm 1 m/S 747 mmHg 62%
    01:00 +18°C° 0 mm 2 m/S 747 mmHg 65%
    02:00 +19°C° 0 mm 1 m/S 747 mmHg 68%
    03:00 +18°C° 0 mm 1 m/S 747 mmHg 72%
    04:00 +18°C° 0 mm 1 m/S 747 mmHg 75%
    05:00 +19°C° 0 mm 1 m/S 747 mmHg 73%
    06:00 +20°C° 0 mm 1 m/S 747 mmHg 70%
    07:00 +20°C° 0 mm 2 m/S 748 mmHg 68%
    08:00 +21°C° 0 mm 2 m/S 748 mmHg 61%
    09:00 +24°C° 0 mm 2 m/S 748 mmHg 55%
    10:00 +26°C° 0 mm 2 m/S 748 mmHg 49%
    11:00 +27°C° 0 mm 2 m/S 747 mmHg 45%
    12:00 +28°C° 0 mm 2 m/S 747 mmHg 42%
    13:00 +29°C° 0 mm 2 m/S 747 mmHg 38%
    14:00 +29°C° 0 mm 2 m/S 747 mmHg 37%
    15:00 +29°C° 0 mm 2 m/S 747 mmHg 36%
    16:00 +29°C° 0 mm 1 m/S 746 mmHg 35%
    17:00 +28°C° 0 mm 1 m/S 746 mmHg 40%
    18:00 +27°C° 0 mm 1 m/S 746 mmHg 45%
    19:00 +26°C° 0 mm 1 m/S 746 mmHg 49%
    20:00 +25°C° 0 mm 1 m/S 746 mmHg 51%
    21:00 +23°C° 0 mm 1 m/S 746 mmHg 54%
    22:00 +21°C° 0 mm 1 m/S 746 mmHg 56%
    23:00 +21°C° 0 mm 1 m/S 746 mmHg 58%

    Morgen, 20 Juli, Freitag

    Zeit Temperatur Niederschläge Wind Luftdruck Luftfeuchtigkeit
    00:00 +20°C° 0 mm 1 m/S 746 mmHg 59%
    01:00 +19°C° 0 mm 1 m/S 746 mmHg 61%
    02:00 +19°C° 0 mm 1 m/S 746 mmHg 63%
    03:00 +19°C° 0 mm 1 m/S 746 mmHg 66%
    04:00 +18°C° 0 mm 1 m/S 745 mmHg 68%
    05:00 +19°C° 0 mm 1 m/S 745 mmHg 67%
    06:00 +20°C° 0 mm 1 m/S 745 mmHg 65%
    07:00 +21°C° 0 mm 1 m/S 745 mmHg 64%
    08:00 +23°C° 0 mm 1 m/S 745 mmHg 58%
    09:00 +25°C° 0 mm 1 m/S 745 mmHg 52%
    10:00 +27°C° 0 mm 2 m/S 745 mmHg 46%
    11:00 +28°C° 0 mm 2 m/S 745 mmHg 43%
    12:00 +29°C° 0 mm 2 m/S 744 mmHg 40%
    13:00 +30°C° 0 mm 2 m/S 744 mmHg 37%
    14:00 +30°C° 0 mm 1 m/S 744 mmHg 38%
    15:00 +30°C° 0 mm 1 m/S 744 mmHg 39%
    16:00 +30°C° 0 mm 1 m/S 743 mmHg 39%
    17:00 +29°C° 0,1 mm 1 m/S 743 mmHg 45%
    18:00 +28°C° 0,1 mm 1 m/S 743 mmHg 50%
    19:00 +26°C° 0,1 mm 1 m/S 742 mmHg 55%
    20:00 +25°C° 0,2 mm 1 m/S 742 mmHg 59%
    21:00 +24°C° 0,2 mm 1 m/S 743 mmHg 64%
    22:00 +22°C° 0,2 mm 1 m/S 743 mmHg 69%
    23:00 +22°C° 0,4 mm 1 m/S 742 mmHg 71%

    übermorgen, 21 Juli, Samstag

    Zeit Temperatur Niederschläge Wind Luftdruck Luftfeuchtigkeit
    00:00 +21°C° 0,4 mm 1 m/S 742 mmHg 73%
    01:00 +21°C° 0,4 mm 1 m/S 742 mmHg 75%
    02:00 +21°C° 0,1 mm 1 m/S 742 mmHg 76%
    03:00 +20°C° 0,1 mm 1 m/S 742 mmHg 78%
    04:00 +18°C° 0,1 mm 0 m/S 742 mmHg 79%
    05:00 +20°C° 0,1 mm 1 m/S 742 mmHg 79%
    06:00 +21°C° 0,1 mm 1 m/S 742 mmHg 78%
    07:00 +22°C° 0,1 mm 1 m/S 742 mmHg 77%
    08:00 +23°C° 0,1 mm 1 m/S 742 mmHg 71%
    09:00 +25°C° 0,1 mm 1 m/S 743 mmHg 65%
    10:00 +27°C° 0,1 mm 1 m/S 743 mmHg 58%
    11:00 +28°C° 0,2 mm 1 m/S 743 mmHg 55%
    12:00 +29°C° 0,2 mm 1 m/S 742 mmHg 52%
    13:00 +30°C° 0,2 mm 1 m/S 742 mmHg 48%
    14:00 +30°C° 0,3 mm 1 m/S 742 mmHg 48%
    15:00 +30°C° 0,3 mm 2 m/S 742 mmHg 49%
    16:00 +30°C° 0,3 mm 2 m/S 742 mmHg 49%
    17:00 +29°C° 0,4 mm 2 m/S 742 mmHg 54%
    18:00 +28°C° 0,4 mm 2 m/S 742 mmHg 60%
    19:00 +26°C° 0,4 mm 2 m/S 742 mmHg 65%
    20:00 +25°C° 0,2 mm 2 m/S 742 mmHg 69%
    21:00 +24°C° 0,2 mm 2 m/S 742 mmHg 73%
    22:00 +22°C° 0,2 mm 1 m/S 742 mmHg 77%
    23:00 +22°C° 0,7 mm 1 m/S 743 mmHg 79%

    22 Juli, Sonntag

    Zeit Temperatur Niederschläge Wind Luftdruck Luftfeuchtigkeit
    00:00 +21°C° 0,7 mm 1 m/S 743 mmHg 81%
    01:00 +21°C° 0,7 mm 1 m/S 743 mmHg 83%
    02:00 +20°C° 0,8 mm 1 m/S 743 mmHg 85%
    03:00 +20°C° 0,8 mm 1 m/S 743 mmHg 86%
    04:00 +20°C° 0,8 mm 1 m/S 743 mmHg 87%
    05:00 +20°C° 0,1 mm 1 m/S 743 mmHg 85%
    06:00 +19°C° 0,1 mm 2 m/S 743 mmHg 84%
    07:00 +20°C° 0,1 mm 2 m/S 744 mmHg 83%
    08:00 +21°C° 0,2 mm 2 m/S 744 mmHg 76%
    09:00 +24°C° 0,2 mm 3 m/S 744 mmHg 68%
    10:00 +25°C° 0,2 mm 3 m/S 744 mmHg 61%
    11:00 +26°C° 0,2 mm 3 m/S 744 mmHg 56%
    12:00 +27°C° 0,2 mm 3 m/S 744 mmHg 51%
    13:00 +28°C° 0,2 mm 3 m/S 744 mmHg 46%
    14:00 +28°C° 0 mm 4 m/S 744 mmHg 45%
    15:00 +28°C° 0 mm 4 m/S 744 mmHg 45%
    16:00 +29°C° 0 mm 4 m/S 744 mmHg 44%
    17:00 +28°C° 0 mm 3 m/S 744 mmHg 48%
    18:00 +27°C° 0 mm 3 m/S 744 mmHg 53%
    19:00 +26°C° 0 mm 3 m/S 744 mmHg 57%
    20:00 +24°C° 0 mm 2 m/S 745 mmHg 61%
    21:00 +23°C° 0 mm 2 m/S 745 mmHg 65%
    22:00 +20°C° 0 mm 2 m/S 746 mmHg 69%
    23:00 +19°C° 0 mm 2 m/S 746 mmHg 72%

    23 Juli, Montag

    Zeit Temperatur Niederschläge Wind Luftdruck Luftfeuchtigkeit
    00:00 +20°C° 0 mm 1 m/S 746 mmHg 74%
    01:00 +19°C° 0 mm 1 m/S 746 mmHg 76%
    02:00 +19°C° 0 mm 1 m/S 746 mmHg 78%
    03:00 +18°C° 0 mm 1 m/S 746 mmHg 79%
    04:00 +18°C° 0 mm 1 m/S 746 mmHg 80%
    05:00 +19°C° 0 mm 1 m/S 746 mmHg 77%
    06:00 +20°C° 0 mm 1 m/S 747 mmHg 74%
    07:00 +19°C° 0 mm 0 m/S 747 mmHg 71%
    08:00 +21°C° 0 mm 0 m/S 747 mmHg 64%
    09:00 +23°C° 0 mm 0 m/S 747 mmHg 58%
    10:00 +25°C° 0 mm 0 m/S 747 mmHg 51%
    11:00 +27°C° 0 mm 1 m/S 747 mmHg 48%
    12:00 +28°C° 0 mm 1 m/S 747 mmHg 44%
    13:00 +29°C° 0 mm 1 m/S 746 mmHg 41%
    14:00 +29°C° 0 mm 1 m/S 746 mmHg 40%
    15:00 +29°C° 0 mm 1 m/S 746 mmHg 40%
    16:00 +30°C° 0 mm 1 m/S 746 mmHg 39%
    17:00 +29°C° 0 mm 1 m/S 746 mmHg 44%
    18:00 +28°C° 0 mm 1 m/S 746 mmHg 48%
    19:00 +27°C° 0 mm 1 m/S 746 mmHg 52%
    20:00 +26°C° 0 mm 1 m/S 746 mmHg 56%
    21:00 +24°C° 0 mm 1 m/S 746 mmHg 59%
    22:00 +22°C° 0 mm 1 m/S 746 mmHg 62%
    23:00 +22°C° 0 mm 1 m/S 746 mmHg 65%

    24 Juli, Dienstag

    Zeit Temperatur Niederschläge Wind Luftdruck Luftfeuchtigkeit
    00:00 +21°C° 0 mm 1 m/S 746 mmHg 67%
    01:00 +21°C° 0 mm 1 m/S 746 mmHg 69%
    02:00 +18°C° 0 mm 0 m/S 746 mmHg 71%
    03:00 +18°C° 0 mm 0 m/S 746 mmHg 73%
    04:00 +17°C° 0 mm 0 m/S 746 mmHg 74%
    05:00 +18°C° 0 mm 0 m/S 746 mmHg 72%
    06:00 +19°C° 0 mm 0 m/S 746 mmHg 69%
    07:00 +20°C° 0 mm 0 m/S 746 mmHg 67%
    08:00 +24°C° 0 mm 1 m/S 746 mmHg 61%
    09:00 +26°C° 0 mm 1 m/S 746 mmHg 55%
    10:00 +28°C° 0 mm 1 m/S 745 mmHg 49%
    11:00 +29°C° 0 mm 1 m/S 745 mmHg 46%
    12:00 +30°C° 0 mm 1 m/S 745 mmHg 42%
    13:00 +31°C° 0 mm 2 m/S 745 mmHg 39%
    14:00 +31°C° 0 mm 1 m/S 744 mmHg 38%
    15:00 +32°C° 0 mm 1 m/S 744 mmHg 38%
    16:00 +32°C° 0 mm 1 m/S 744 mmHg 37%
    17:00 +31°C° 0 mm 1 m/S 744 mmHg 42%
    18:00 +30°C° 0 mm 1 m/S 744 mmHg 46%
    19:00 +29°C° 0 mm 1 m/S 744 mmHg 51%
    20:00 +27°C° 0 mm 1 m/S 744 mmHg 54%
    21:00 +26°C° 0 mm 1 m/S 744 mmHg 57%
    22:00 +24°C° 0 mm 1 m/S 744 mmHg 61%
    23:00 +24°C° 0 mm 1 m/S 744 mmHg 63%
    Mehr zeigen